Home > Time Zones > World Clock > Weather > U.S.A. > Hilo > Past weeks

Flag for U.S.A. Weather past 2 weeks in Hilo, Hawaii, U.S.A.

Now
81 °F

Partly sunny.


Feels Like: 84 °F
Forecast: 67 / 76 °F
Wind: 13 mph from Southeast

Location: Hilo International Airport

Current Time: Mar 1, 2015 at 1:56:29 PM

Latest Report: Mar 1, 2015 at 1:10 PM


Visibility: 10 mi

Pressure: 29.94 "Hg

Humidity: 70%

Dew point: 70 °F

Location of HiloLocation

Historic Weather in Hilo — Graph

°F

Hilo temperature yesterday

Maximum temperature yesterday: 81 °F (at 1:53 PM)
Minimum temperature yesterday: 69 °F (at 4:53 AM)
Average temperature yesterday: 74 °F

Past Weeks' High & Low Weather Summary

 TemperatureHumidityPressure
High88 °F (Feb 14, 1:53 PM)100% (Feb 21, 8:09 PM)30.09 "Hg (Feb 21, 8:09 PM)
Low63 °F (Feb 16, 6:53 AM)40% (Feb 14, 12:53 PM)29.60 "Hg (Feb 14, 1:53 PM)
Average73 °F75%29.96 "Hg
* Reported Feb 14 12:53 PM — Mar 1 12:53 PM, Hilo, Weather by CustomWeather, © 2015

Note: Actual official high and low records may vary slightly from our data, if they occured in-between our weather recording intervals... More about our weather records

Advertising

Hilo weather history for previous 24 hours

 ConditionsComfort  
Time TempWeatherWind HumidityBarometerVisibility
12:53 PM
Sun, Mar 1
81 °FScattered clouds.7 mph67%29.94 "Hg10 mi
12:40 PM81 °FBroken clouds.8 mph66%29.95 "Hg10 mi
12:24 PM81 °FBroken clouds.5 mph70%29.96 "Hg10 mi
11:53 AM75 °FBroken clouds.6 mph85%29.98 "Hg10 mi
11:11 AM73 °FLight rain. Mostly cloudy.5 mph89%30.02 "Hg10 mi
10:53 AM71 °FHeavy rain. Mostly cloudy.No wind90%30.03 "Hg10 mi
10:22 AM72 °FLight rain. Mostly cloudy.7 mph94%30.04 "Hg10 mi
8:53 AM74 °FMostly cloudy.5 mph79%30.01 "Hg10 mi
7:53 AM71 °FPartly sunny.6 mph81%29.99 "Hg10 mi
6:53 AM67 °FPartly sunny.6 mph85%29.97 "Hg10 mi
5:53 AM67 °FPassing clouds.5 mph85%29.96 "Hg10 mi
5:22 AM68 °FMostly cloudy.7 mph83%29.96 "Hg10 mi
4:53 AM68 °FPassing clouds.6 mph82%29.93 "Hg10 mi
3:53 AM68 °FMostly cloudy.9 mph84%29.93 "Hg10 mi
3:04 AM66 °FMostly cloudy.5 mph94%29.93 "Hg10 mi
2:53 AM68 °FMostly cloudy.7 mph87%29.93 "Hg10 mi
2:30 AM68 °FLight rain. Mostly cloudy.8 mph88%29.94 "Hg10 mi
1:53 AM68 °FPassing clouds.5 mph87%29.94 "Hg10 mi
12:53 AM68 °FPassing clouds.6 mph90%29.97 "Hg10 mi
11:53 PM
Sat, Feb 28
69 °FPassing clouds.6 mph93%29.98 "Hg10 mi
10:53 PM70 °FClear.3 mph93%29.97 "Hg10 mi
9:53 PM71 °FPassing clouds.5 mph90%29.97 "Hg10 mi
9:15 PM72 °FPassing clouds.6 mph88%29.98 "Hg10 mi
8:53 PM72 °FPassing clouds.10 mph91%29.98 "Hg10 mi
7:53 PM73 °FRain. Overcast.8 mph84%29.97 "Hg10 mi
7:44 PM73 °FMostly cloudy.6 mph89%29.97 "Hg10 mi
6:53 PM73 °FLight rain. Mostly cloudy.6 mph88%29.94 "Hg10 mi
6:07 PM73 °FRain. More clouds than sun.5 mph89%29.93 "Hg10 mi
5:53 PM74 °FRain. Mostly cloudy.6 mph91%29.92 "Hg10 mi
5:22 PM75 °FLight rain. Cloudy.8 mph83%29.91 "Hg10 mi
4:53 PM77 °FPassing clouds.9 mph77%29.90 "Hg10 mi
3:53 PM79 °FCloudy.6 mph67%29.86 "Hg10 mi
2:53 PM80 °FPartly sunny.No wind60%29.86 "Hg10 mi
1:53 PM81 °FPartly sunny.9 mph65%29.87 "Hg10 mi
Weather by CustomWeather, © 2015

See weather overviewHow to use our weather pages